Weather History for KWST - February, 2013

Change the Weather History Date:

Monday, February 4, 2013

  Actual Average (KGON) Record (KGON)
Temperature  
Mean Temperature 26 °F -  
Max Temperature 30 °F 36 °F 59 °F (1991)
Min Temperature 21 °F 19 °F -12 °F (1965)
Degree Days  
Heating Degree Days 40    
Moisture  
Dew Point 8 °F    
Average Humidity 47    
Maximum Humidity 74    
Minimum Humidity 32    
Precipitation  
Precipitation 0.00 in - - ()
Sea Level Pressure  
Sea Level Pressure 29.87 in    
Wind  
Wind Speed 6 mph (WNW)    
Max Wind Speed 14 mph    
Max Gust Speed 23 mph    
Visibility 10 miles    
Events      
Averages and records for this station are not official NWS values.
T = Trace of Precipitation, MM = Missing Value Source: NWS Daily Summary

Daily Weather History Graph

Daily Weather History Graph

Search for Another Location

Airport or City:

Trip Planner

Search our weather history database for the weather conditions in past years. The results will help you decide how hot, cold, wet, or windy it might be!

Date:

Astronomy

Feb. 04, 2013 Rise Set
Actual Time 6:55 AM EST 5:07 PM EST
Civil Twilight 6:26 AM EST 5:36 PM EST
Nautical Twilight 5:53 AM EST 6:09 PM EST
Astronomical Twilight 5:21 AM EST 6:41 PM EST
Moon 1:28 AM EST 11:27 AM EST
Length of Visible Light 11h 10m
Length of Day
10h 12m
Last Quarter, 37% of the Moon is Illuminated
Feb 4
Last Quarter
Feb 10
New
Feb 17
First Quarter
Feb 25
Full
Mar 4
Last Quarter

Hourly Weather History & Observations

Time (EST) Temp. Windchill Dew Point Humidity Pressure Visibility Wind Dir Wind Speed Gust Speed Precip Events Conditions
12:53 AM 24.1 °F 18.2 °F 14.0 °F 65% 29.77 in 10.0 mi West 4.6 mph - N/A   Clear
1:53 AM 23.0 °F 18.4 °F 12.9 °F 65% 29.77 in 10.0 mi NNW 3.5 mph - N/A   Clear
2:53 AM 21.9 °F 17.2 °F 12.9 °F 68% 29.77 in 10.0 mi WNW 3.5 mph - N/A   Clear
3:53 AM 21.9 °F 17.2 °F 12.9 °F 68% 29.77 in 10.0 mi NW 3.5 mph - N/A   Mostly Cloudy
5:53 AM 21.0 °F 16.2 °F 14.0 °F 74% 29.81 in 10.0 mi WNW 3.5 mph - N/A   Clear
6:53 AM 21.9 °F 12.5 °F 14.0 °F 72% 29.83 in 10.0 mi NW 8.1 mph - N/A   Mostly Cloudy
7:53 AM 23.0 °F 14.7 °F 12.0 °F 63% 29.86 in 10.0 mi NW 6.9 mph - N/A   Clear
8:53 AM 26.1 °F 16.8 °F 10.9 °F 53% 29.87 in 10.0 mi NW 9.2 mph 19.6 mph N/A   Clear
9:53 AM 27.0 °F 19.5 °F 9.0 °F 47% 29.87 in 10.0 mi Variable 6.9 mph 21.9 mph N/A   Clear
10:53 AM 28.9 °F 18.6 °F 7.0 °F 40% 29.88 in 10.0 mi NW 12.7 mph 20.7 mph N/A   Clear
11:53 AM 30.0 °F 22.4 °F 7.0 °F 38% 29.86 in 10.0 mi WNW 8.1 mph 20.7 mph N/A   Mostly Cloudy
12:53 PM 30.0 °F 21.1 °F 6.1 °F 36% 29.85 in 10.0 mi West 10.4 mph 19.6 mph N/A   Mostly Cloudy
1:53 PM 30.9 °F 23.5 °F 6.1 °F 35% 29.85 in 10.0 mi WNW 8.1 mph 18.4 mph N/A   Partly Cloudy
2:53 PM 30.9 °F 22.2 °F 5.0 °F 33% 29.86 in 10.0 mi WNW 10.4 mph 19.6 mph N/A   Partly Cloudy
3:53 PM 30.0 °F 19.5 °F 3.0 °F 32% 29.86 in 10.0 mi WNW 13.8 mph 23.0 mph N/A   Partly Cloudy
4:53 PM 28.9 °F 21.1 °F 5.0 °F 36% 29.86 in 10.0 mi WNW 8.1 mph - N/A   Clear
5:53 PM 28.9 °F 20.4 °F 3.9 °F 35% 29.89 in 10.0 mi West 9.2 mph - N/A   Clear
6:53 PM 28.0 °F 19.3 °F 3.9 °F 36% 29.91 in 10.0 mi West 9.2 mph - N/A   Clear
7:53 PM 27.0 °F 21.6 °F 3.9 °F 37% 29.93 in 10.0 mi WNW 4.6 mph - N/A   Clear
8:53 PM 27.0 °F 23.0 °F 3.9 °F 37% 29.96 in 10.0 mi West 3.5 mph - N/A   Clear
9:53 PM 27.0 °F 20.5 °F 3.0 °F 36% 29.96 in 10.0 mi WNW 5.8 mph - N/A   Clear
10:53 PM 26.1 °F - 3.0 °F 37% 29.96 in 10.0 mi Calm Calm - N/A   Clear
11:53 PM 25.0 °F 20.7 °F 3.9 °F 41% 29.98 in 10.0 mi West 3.5 mph - N/A   Overcast